Theta_e
332 332 331 332 332 332 332 332 331 331 330 329 329 328 328 328 326 326 326 326 324 323 323 322 325 324 318 308 308 324 336 340 331 321 315 313 310 310 306 308 308 306 307 309 310 309 308
334 334 333 333 333 333 333 332 331 330 330 330 329 329 328 327 326 326 326 325 323 323 322 323 323 322 312 305 320 327 323 320 320 318 314 314 312 313 309 306 305 306 306 307 307 307 308
334 334 334 334 333 333 333 332 330 329 329 330 329 328 328 327 325 325 325 323 322 321 322 321 321 320 308 307 317 322 322 319 319 315 310 315 315 311 309 305 308 307 303 306 306 306 305
334 334 333 333 333 332 331 331 329 328 329 329 329 326 327 326 325 325 323 321 320 323 321 322 323 317 306 314 321 314 317 314 319 320 318 319 317 313 310 309 307 303 303 298 303 303 304
334 333 333 332 332 331 330 330 329 328 327 328 329 327 326 325 324 324 321 319 318 321 323 323 320 316 306 321 311 310 312 312 316 318 319 317 316 310 309 303 301 302 297 298 300 303 303
334 333 333 332 331 330 330 329 328 327 326 326 327 326 324 324 323 322 317 317 315 311 310 320 319 310 310 304 306 307 311 309 311 316 313 313 311 306 305 302 295 297 296 298 297 301 303
334 333 332 331 330 330 329 329 327 326 325 325 325 325 323 323 322 317 312 311 308 308 306 300 300 300 303 306 307 307 309 309 311 310 305 308 303 300 303 304 302 300 298 297 300 303 301
334 333 332 331 330 329 329 328 326 325 324 324 324 324 323 322 320 311 310 303 300 300 297 303 301 301 303 304 301 306 309 304 304 300 304 302 298 303 304 302 300 299 297 297 300 302 300
333 333 332 331 331 330 329 327 325 323 323 323 323 323 322 319 313 310 305 301 306 304 298 301 302 302 303 304 303 303 307 305 301 299 300 298 300 303 301 300 298 298 297 297 297 301 301
333 333 332 332 331 330 329 326 324 322 322 321 321 322 318 317 315 310 304 304 306 308 297 297 300 304 306 307 300 303 304 304 301 298 299 299 301 299 298 297 299 294 300 299 297 296 291
333 333 332 331 331 330 328 325 323 321 320 320 320 320 313 313 313 309 305 307 307 306 290 298 300 309 303 299 299 300 302 304 298 299 298 297 297 297 296 297 299 296 296 297 297 295 294
331 332 331 330 330 329 327 323 321 321 320 320 320 320 314 315 315 308 309 306 305 296 289 295 297 296 296 296 296 297 298 302 300 297 298 297 297 295 296 296 296 297 294 295 295 293 286
325 324 323 322 321 321 320 319 319 320 322 320 320 321 317 313 311 311 309 303 297 291 297 292 293 294 293 294 293 293 293 294 293 290 291 294 293 293 291 290 294 293 291 286 284 285 284
321 321 320 319 319 318 318 318 319 319 321 320 319 320 317 316 312 313 306 302 289 294 295 297 293 293 291 291 292 290 291 291 293 291 290 288 286 290 291 290 290 291 291 286 279 282 285
320 319 319 318 317 317 317 318 318 319 319 318 316 318 316 312 313 315 303 293 292 294 295 293 294 291 292 288 288 290 290 291 293 293 289 288 288 288 288 288 288 290 286 290 285 286 282
317 317 317 317 316 316 316 317 317 318 319 316 314 311 311 306 311 307 299 293 294 296 294 293 289 292 289 291 291 292 291 292 291 290 291 290 284 288 288 288 288 286 288 282 284 277 276
317 317 316 316 315 314 314 315 318 318 318 314 312 305 304 305 303 297 292 293 294 298 296 294 292 291 291 290 291 290 289 293 293 291 289 288 285 286 285 284 285 284 283 283 284 284 278
314 314 315 315 314 313 313 315 320 317 317 313 310 299 303 303 297 296 293 294 295 295 296 295 294 293 291 292 289 290 289 292 290 289 287 289 284 281 283 285 286 284 283 283 279 277 280
313 315 315 314 313 312 312 313 313 312 310 311 304 301 304 301 291 292 294 292 294 294 293 293 292 292 290 289 284 288 288 290 290 288 287 288 283 279 280 283 284 282 284 283 283 282 277
311 313 314 314 312 312 312 311 311 311 311 309 302 294 297 295 295 291 290 290 290 293 292 292 290 292 291 288 290 286 288 290 290 289 291 289 283 281 278 279 281 278 281 282 281 277 278
310 310 311 312 313 312 312 311 310 309 309 309 298 293 294 291 289 290 289 288 288 288 292 292 290 289 289 285 286 286 289 289 289 290 289 287 280 282 283 283 281 280 280 280 278 280 276
308 309 309 309 310 310 310 310 310 310 308 306 296 293 293 288 287 287 287 287 286 289 289 287 288 290 289 286 287 284 287 286 286 288 287 287 281 281 279 281 280 278 280 280 280 280 279
308 307 307 308 308 308 307 308 308 309 307 303 300 299 298 290 287 287 287 287 287 289 291 293 291 289 288 289 292 292 290 290 289 285 284 284 282 278 274 277 278 275 279 280 281 282 281
308 307 306 306 306 306 306 306 306 307 306 305 300 298 292 286 288 287 287 288 288 288 287 290 291 289 292 292 291 290 287 287 287 287 286 283 282 279 276 276 270 278 283 283 281 282 284
306 306 306 305 305 305 305 304 305 305 306 306 303 299 294 286 288 288 287 286 289 290 289 289 291 293 295 289 283 279 279 279 281 282 282 284 282 277 275 274 277 279 281 281 280 280 286
304 305 305 305 305 304 304 304 305 305 305 304 301 303 297 287 286 289 287 287 285 286 287 289 292 294 292 286 282 277 276 277 275 278 281 281 282 279 276 272 270 279 285 288 287 278 288
303 303 303 303 303 303 303 303 303 303 303 303 300 301 298 287 291 291 287 286 289 287 286 287 287 286 288 283 279 278 277 281 275 275 275 277 278 276 276 275 277 283 287 288 275 279 288
302 302 302 303 302 302 302 302 302 302 302 301 299 300 295 288 291 292 292 289 289 288 283 286 285 285 284 280 280 280 278 280 279 281 278 276 275 275 276 274 272 286 285 280 286 289 289
301 301 301 301 301 301 301 302 301 301 302 300 297 300 300 291 290 295 295 295 294 292 288 288 286 285 286 283 283 283 279 281 280 275 282 277 281 279 280 279 284 288 287 290 290 289 289
Wind_Speed
6 6 6 8 10 8 8 11 11 11 9 9 11 13 16 17 19 21 21 20 20 20 20 17 13 8 6 5 1 4 4 6 5 5 5 4 6 3 5 1 2 7 5 6 7 8 10
8 6 7 8 9 9 9 10 12 13 12 9 10 14 15 17 19 21 22 21 22 20 16 10 2 3 5 4 3 3 4 2 2 2 2 3 3 2 2 2 5 4 8 11 9 12 9
7 7 6 7 8 9 9 9 9 10 11 11 12 13 15 17 19 21 24 21 20 16 6 3 1 2 3 4 3 2 0 2 1 1 1 2 0 4 1 4 3 6 10 12 11 5 2
6 6 6 7 6 7 8 8 9 10 11 11 10 14 13 15 19 22 25 20 17 6 2 1 2 3 1 1 3 2 1 3 3 2 1 2 2 1 3 1 5 9 7 7 5 3 4
7 6 5 6 6 6 6 7 8 9 10 11 12 11 10 15 18 23 26 21 8 2 0 1 4 4 4 1 2 3 2 2 3 3 3 5 3 1 4 7 9 6 11 10 10 2 2
6 5 5 5 5 5 6 6 7 8 9 10 11 11 11 14 18 22 27 17 2 4 3 3 2 4 2 2 3 4 1 2 2 7 6 5 5 7 6 8 10 12 13 14 12 4 13
6 6 6 5 4 3 4 5 6 8 9 10 11 11 11 14 17 18 15 4 6 2 9 6 8 6 7 6 4 2 1 3 3 5 8 3 8 11 11 10 12 13 16 20 17 15 16
8 7 7 6 5 4 3 4 5 6 8 9 10 11 11 13 14 12 8 7 4 3 10 4 6 7 6 4 3 2 2 5 7 12 3 6 14 13 8 11 13 15 18 19 16 7 7
8 8 7 7 7 6 4 3 4 5 7 9 10 10 11 14 7 3 8 6 5 3 7 2 2 3 2 3 2 3 2 2 3 6 9 13 4 3 4 6 11 14 17 18 18 15 15
9 8 8 8 8 7 6 4 4 6 7 8 9 9 12 17 2 5 3 5 4 4 6 4 1 3 2 2 1 3 4 3 3 4 4 8 2 9 12 14 12 16 11 15 15 11 12
9 8 8 8 8 8 6 4 4 7 8 8 8 5 8 11 4 3 6 7 0 4 7 4 3 2 1 3 2 3 1 3 6 4 4 2 4 7 10 12 9 13 2 10 13 14 16
9 4 5 5 6 8 6 2 4 6 7 7 7 1 1 0 2 4 7 5 4 5 5 2 2 2 3 1 1 4 2 1 1 4 8 15 1 5 11 6 10 7 10 13 12 12 16
13 15 13 13 13 11 9 7 7 9 9 7 6 2 2 0 3 7 8 4 5 6 3 2 1 2 2 3 3 1 2 8 8 8 12 7 13 3 2 8 8 10 12 10 11 11 15
13 13 12 11 10 8 6 5 5 7 7 7 5 3 1 2 3 7 5 6 7 1 5 2 2 5 7 3 2 1 4 8 7 7 12 13 18 6 6 6 8 9 14 12 13 13 13
12 12 12 12 12 11 11 11 10 8 7 3 3 0 1 4 5 4 4 6 5 2 3 4 7 10 8 1 4 5 5 11 5 7 10 13 14 4 1 2 3 4 11 7 10 9 7
10 10 11 11 12 12 13 13 13 11 5 8 1 2 2 8 4 2 4 5 5 3 3 2 7 4 9 5 7 8 8 2 5 4 3 8 15 3 2 3 4 8 4 5 5 6 7
11 10 9 10 11 13 15 17 15 9 3 9 2 3 5 5 2 1 4 5 5 5 5 5 6 9 12 13 13 15 8 14 10 5 4 5 5 5 1 7 8 6 6 4 4 2 5
11 9 8 9 10 12 15 20 10 9 6 3 2 3 3 2 3 2 5 3 4 4 3 6 7 13 18 16 16 17 16 15 4 2 7 4 5 11 10 1 3 3 6 4 4 5 3
12 11 10 9 9 11 13 14 15 13 10 1 1 1 2 2 4 5 5 4 5 12 12 4 9 5 3 7 7 6 5 2 3 5 4 3 6 7 6 7 3 6 6 6 8 6 12
10 11 10 8 9 9 11 12 12 13 10 2 0 1 2 1 2 3 5 8 8 1 2 4 5 6 10 8 8 6 8 2 2 1 4 3 7 11 10 3 2 3 7 7 9 7 6
7 9 10 10 9 9 9 10 11 10 10 1 2 1 2 2 3 6 3 3 3 4 1 3 4 9 6 4 5 8 9 7 5 4 3 5 7 10 14 14 10 11 9 12 12 11 8
5 7 7 6 8 10 12 8 8 11 8 2 1 1 1 3 3 3 4 3 4 8 4 6 9 11 4 7 11 16 9 7 7 9 6 6 4 6 11 7 10 13 13 13 15 15 12
3 4 4 6 7 8 8 9 11 10 5 2 1 1 3 5 3 3 4 4 3 5 8 13 9 8 12 14 13 13 9 12 6 6 10 6 6 6 7 2 6 11 13 15 12 8 12
3 2 2 3 5 6 7 8 9 12 8 2 1 1 1 5 5 4 5 8 13 13 12 13 10 7 5 1 3 1 1 3 8 11 10 7 9 3 3 3 6 5 2 3 10 6 12
6 4 2 2 3 4 5 7 7 9 7 2 2 2 3 5 7 9 13 12 13 15 19 18 16 16 1 2 3 3 2 4 7 5 9 9 8 3 4 6 6 3 4 7 10 8 7
4 5 5 2 1 2 3 5 8 10 10 2 2 2 2 2 4 5 9 9 12 14 16 16 1 3 7 3 3 6 6 6 6 6 2 5 4 6 3 4 4 5 7 3 3 10 10
2 3 4 3 2 3 1 2 5 5 9 2 1 1 3 3 5 4 6 5 3 5 4 3 1 3 2 5 6 7 7 7 7 9 8 6 4 9 7 4 6 5 9 3 5 3 4
7 7 6 4 3 3 2 2 3 1 4 1 1 1 1 2 7 8 7 11 7 5 5 1 4 5 4 7 6 5 7 9 7 6 8 11 9 6 4 4 8 10 7 6 5 4 2
8 7 7 7 6 5 4 4 3 3 2 2 1 2 2 4 5 6 10 13 15 17 12 5 8 3 3 5 6 5 6 4 11 6 5 8 5 5 9 5 2 12 2 5 3 3 2
Wind_Direction
274 277 297 333 347 2 337 325 339 329 317 336 343 344 343 339 336 331 323 320 321 316 317 317 312 295 258 229 18 69 88 100 139 186 213 204 208 231 258 281 237 251 297 283 267 277 275
326 320 328 327 334 337 333 335 344 348 336 321 352 345 341 336 330 324 319 321 321 323 320 323 8 254 250 250 32 59 102 122 108 198 184 215 311 283 316 275 258 341 289 283 283 275 263
314 323 318 325 322 326 338 347 343 344 349 359 353 343 341 334 330 325 322 327 328 329 342 22 83 280 252 23 33 27 19 52 92 33 68 205 39 253 6 289 332 297 297 297 277 304 251
300 312 316 319 334 341 344 344 344 346 347 344 333 346 338 333 330 325 320 330 329 333 26 60 247 264 26 75 317 153 177 124 130 137 104 156 173 133 275 255 250 282 268 289 94 322 105
294 299 303 316 328 336 340 346 348 348 345 341 337 340 338 336 332 328 319 329 314 318 13 248 250 302 99 345 129 357 328 107 128 141 109 117 170 215 197 252 268 195 282 287 298 236 247
274 284 284 297 314 329 341 349 348 344 341 342 335 336 339 339 338 332 320 321 298 248 213 245 219 229 106 36 335 325 273 247 169 151 151 185 189 224 216 228 275 300 280 275 264 244 284
264 272 271 275 291 307 326 343 348 344 341 342 340 341 343 340 339 335 335 337 341 171 32 350 319 280 283 317 257 195 1 181 177 221 233 202 240 242 265 255 283 276 272 275 281 288 276
259 261 267 275 279 283 304 330 345 347 343 343 341 345 343 334 338 338 9 56 48 311 309 307 290 267 285 291 274 99 236 223 216 246 214 229 254 277 278 271 252 257 268 273 285 281 262
255 259 258 263 265 265 265 295 323 332 342 346 344 349 346 335 327 24 58 57 321 203 270 304 273 301 2 222 54 59 296 175 242 234 235 257 316 107 197 237 246 252 264 276 282 289 275
262 257 259 258 260 252 251 261 306 330 348 351 349 356 353 329 274 353 45 2 328 224 281 108 97 98 173 276 115 355 6 306 197 280 248 268 314 257 266 262 263 270 261 259 270 279 276
261 248 255 255 262 260 250 253 330 341 340 346 350 21 23 18 334 358 356 339 328 233 295 67 78 23 337 320 3 132 18 220 266 245 231 353 248 247 250 256 220 264 262 263 268 262 273
28 356 315 291 288 266 257 29 9 337 330 335 337 99 258 45 288 352 320 311 226 251 257 87 29 335 276 67 170 317 221 206 349 245 238 264 332 244 268 276 243 305 269 258 262 262 253
62 64 64 67 64 63 66 55 13 343 324 322 314 162 241 328 338 335 312 259 282 242 106 110 350 338 314 258 226 279 260 218 245 256 258 228 235 197 224 264 224 234 251 262 244 218 253
63 64 57 50 52 35 14 353 322 308 313 315 298 175 175 283 324 327 300 281 262 261 268 65 308 280 270 348 223 261 246 253 219 248 277 276 282 191 144 250 289 244 253 243 261 261 279
63 57 50 42 30 24 4 351 340 330 334 332 151 38 289 34 325 277 262 262 275 247 8 322 292 270 277 153 292 304 258 282 288 221 253 298 267 118 219 278 268 206 233 315 281 265 276
57 53 46 37 27 16 6 353 338 327 321 166 100 335 29 342 314 267 238 262 290 315 333 287 281 268 284 313 313 319 308 7 289 254 286 298 283 205 148 250 194 256 5 223 207 248 240
40 37 49 41 31 20 9 350 328 320 266 180 195 286 44 352 283 36 243 266 297 312 299 284 291 282 291 301 287 288 265 290 273 294 248 313 262 248 220 216 274 196 219 225 296 249 276
42 36 41 50 40 32 20 8 21 27 132 183 200 253 32 308 204 204 239 258 348 303 324 297 299 277 276 282 280 276 267 259 23 260 275 274 287 270 273 60 277 275 296 305 227 162 238
41 41 64 58 51 40 34 32 40 35 16 195 267 62 80 301 233 234 239 262 277 278 274 257 275 310 354 289 285 290 279 24 352 246 253 180 222 270 259 203 181 239 255 235 219 221 233
50 49 49 58 55 45 39 38 31 25 6 50 177 227 114 89 355 294 279 269 246 93 255 305 311 311 277 278 248 271 266 236 359 276 26 30 245 231 267 346 14 203 200 204 215 220 244
44 42 46 47 45 41 45 34 28 16 360 116 10 141 351 188 201 254 39 344 296 300 329 242 217 233 246 260 264 247 267 269 241 214 170 200 237 229 253 256 258 267 239 204 216 252 255
38 38 36 42 51 49 44 32 18 9 0 71 291 204 183 139 152 153 174 215 250 267 226 248 246 285 239 237 263 291 283 255 277 196 198 199 252 247 265 252 247 255 248 239 228 243 251
10 38 47 60 57 51 47 40 29 13 4 79 122 182 300 155 169 179 209 228 254 311 251 259 283 291 270 274 283 284 289 263 247 234 208 197 225 224 257 237 265 253 239 230 232 232 226
352 284 94 81 70 52 40 33 29 25 16 21 125 135 213 266 221 230 249 248 264 263 253 283 273 253 298 13 92 359 275 238 248 235 259 239 223 224 293 233 237 63 88 316 221 229 223
10 25 336 350 76 76 48 26 20 14 12 256 152 229 227 262 258 274 267 271 274 273 268 271 269 268 173 111 171 175 184 207 216 209 217 234 215 196 248 237 320 161 186 202 210 255 229
23 24 11 356 145 92 49 14 19 16 22 130 201 284 272 288 239 280 289 288 284 283 283 265 142 10 148 192 181 223 227 204 190 181 159 143 238 234 180 255 257 104 160 183 214 267 152
68 35 27 44 36 345 307 23 27 45 43 56 34 287 278 260 253 240 252 260 250 265 290 324 318 202 188 196 210 225 242 213 196 202 172 168 193 215 210 257 273 217 150 167 244 70 132
49 54 58 55 57 57 50 353 354 33 48 128 107 96 211 232 280 237 244 262 242 241 277 52 266 195 207 219 223 211 244 211 225 196 179 176 174 176 189 224 254 146 148 218 63 138 257
66 51 49 39 22 23 18 358 6 342 178 150 210 189 202 238 279 275 258 264 265 271 272 248 254 231 233 239 226 239 222 219 222 207 193 208 212 175 206 216 43 187 239 223 198 248 268